Regional Weather Roundup
Issued by NWS Sioux Falls, SD

Home | Current Version | Previous Version | Graphics & Text | Print | Product List | Glossary Off
Versions: 1 2 3 4 5 6 7 8 9 10 11 12 13 14 15 16 17 18 19 20 21 22 23 24 25 26 27 28 29 30 31 32 33 34 35 36 37 38 39 40 41 42 43 44 45 46 47 48 49 50

000
ASUS43 KFSD 290802
RWRFSD

WEATHER ROUNDUP FOR SE SOUTH DAKOTA/SW MINNESOTA/NW IOWA
NATIONAL WEATHER SERVICE SIOUX FALLS SD
300 AM CDT FRI JUL 29 2016

NOTE: "FAIR" INDICATES FEW OR NO CLOUDS BELOW 12,000 FEET WITH NO
SIGNIFICANT WEATHER AND OR OBSTRUCTIONS TO VISIBILITY.


SDZ038>040-050-052>070-290900-
SOUTHEAST SOUTH DAKOTA

CITY           SKY/WX    TMP DP  RH WIND       PRES   REMARKS
BROOKINGS      CLEAR     56  54  93 CALM      30.09F
CHAMBERLAIN    CLOUDY    68  66  94 CALM      30.10S
HURON          PTCLDY    62  57  83 CALM      30.08F
MADISON        FAIR      55  55 100 CALM      30.10F
MITCHELL       MOCLDY    62  58  86 E6        30.09S
SIOUX FALLS    PTCLDY    58  55  90 N5        30.08S
WINNER         CLOUDY    64  62  93 NW5       30.12S
YANKTON        CLOUDY    63  55  77 NE7       30.06S
$$

MNZ071-072-080-081-089-090-097-098-290900-
SOUTHWEST MINNESOTA

CITY           SKY/WX    TMP DP  RH WIND       PRES   REMARKS
FAIRMONT       MOCLDY    61  55  82 N6        30.04S
JACKSON        CLOUDY    61  57  88 NW3       30.07S
LUVERNE        PTCLDY    59  54  82 CALM      30.09S
MARSHALL       CLEAR     55  53  93 W3        30.09F
MONTEVIDEO     CLEAR     57  54  88 CALM      30.10S
REDWOOD FALLS  CLEAR     61  55  81 CALM      30.07S
TRACY          CLOUDY    62  58  89 CALM      30.09F
WINDOM         CLEAR     59  55  88 N5        30.07S
WORTHINGTON    CLEAR     57  56  96 NW5       30.08F
$$

IAZ001>003-012>014-020>022-031-032-NEZ013-014-SDZ071-290900-
NORTHWEST IOWA

CITY           SKY/WX    TMP DP  RH WIND       PRES   REMARKS
CHEROKEE       PTCLDY    62  62 100 CALM      30.05F
DENISON        CLEAR     63  63 100 NE6       30.01F
ESTHERVILLE    PTCLDY    60  60 100 W7        30.05F
LE MARS        PTCLDY    61  61 100 N5        30.06F
SHELDON        PTCLDY    59  59 100 N5        30.05F
SIOUX CITY     CLOUDY    68  61  78 N7        30.04F
SPENCER        CLEAR     60  58  92 N3        30.06S
STORM LAKE     CLEAR     63  61  94 N3        30.05F
$$

ABBREVIATIONS USED IN REMARKS
   TC - TEMPERATURE IN CELSIUS
  WCI - WIND CHILL INDEX
   HX - HEAT INDEX
  VSB - VISIBILITY




USA.gov is the U.S. government's official web portal to all federal, state and local government web resources and services.